KX4BE Weather Reports


Display with metric or nautical units.
time (UTC)temp
F
wind
direction
speed
MPH
gust
MPH
rain 1hr
in
rain 24hr
in
rain mn
in
humidity
%
barometer
mb
20260504025342 55 222 2.0 6.0 0.00 0.00 0.00 68 1019.5
20260504024841 56 231 1.0 6.0 0.00 0.00 0.00 68 1019.5
20260504024340 56 191 1.0 4.0 0.00 0.00 0.00 67 1019.4
20260504023858 56 184 1.0 3.0 0.00 0.00 0.00 67 1019.3
20260504023338 56 200 1.0 5.0 0.00 0.00 0.00 66 1019.3
20260504022849 56 237 2.0 5.0 0.00 0.00 0.00 65 1019.3
20260504022348 56 205 1.0 2.0 0.00 0.00 0.00 64 1019.3
20260504021847 57 205 1.0 2.0 0.00 0.00 0.00 63 1019.3
20260504021348 57 205 1.0 2.0 0.00 0.00 0.00 61 1019.3
20260504020846 57 205 1.0 1.0 0.00 0.00 0.00 60 1019.3
20260504020346 57 205 1.0 2.0 0.00 0.00 0.00 60 1019.3
20260504015841 57 205 1.0 2.0 0.00 0.00 0.00 59 1019.3
20260504015338 58 205 0.0 3.0 0.00 0.00 0.00 59 1019.3
20260504014836 58 205 1.0 3.0 0.00 0.00 0.00 59 1019.3
20260504014356 58 205 1.0 2.0 0.00 0.00 0.00 59 1019.3
20260504013834 58 205 1.0 2.0 0.00 0.00 0.00 59 1019.2
20260504013340 58 205 1.0 2.0 0.00 0.00 0.00 59 1019.1
20260504012834 58 205 1.0 2.0 0.00 0.00 0.00 59 1019.1
20260504012332 58 205 0.0 2.0 0.00 0.00 0.00 60 1018.9
20260504011910 59 205 0.0 2.0 0.00 0.00 0.00 60 1018.9
20260504011348 59 205 1.0 2.0 0.00 0.00 0.00 61 1018.9
20260504010847 59 205 0.0 2.0 0.00 0.00 0.00 62 1018.8
20260504010348 59 205 0.0 2.0 0.00 0.00 0.00 62 1018.8
20260504005843 60 205 0.0 1.0 0.00 0.00 0.00 61 1018.8
20260504005402 60 205 0.0 2.0 0.00 0.00 0.00 60 1018.8
20260504004839 60 205 0.0 2.0 0.00 0.00 0.00 60 1018.7
20260504004335 61 205 0.0 1.0 0.00 0.00 0.00 59 1018.6
20260504003853 61 205 0.0 1.0 0.00 0.00 0.00 58 1018.6
20260504003352 62 205 1.0 1.0 0.00 0.00 0.00 59 1018.7
20260504002847 62 205 0.0 1.0 0.00 0.00 0.00 56 1018.7
20260504002348 63 205 0.0 1.0 0.00 0.00 0.00 55 1018.7
20260504001846 63 205 0.0 2.0 0.00 0.00 0.00 53 1018.7
20260504001346 63 205 1.0 3.0 0.00 0.00 0.00 51 1018.7
20260504000841 63 205 1.0 3.0 0.00 0.00 0.00 50 1018.7
20260503235841 64 209 0.0 2.0 0.00 0.00 0.00 54 1018.7
20260503235340 64 209 1.0 3.0 0.00 0.00 0.00 53 1018.8
20260503234838 64 209 0.0 3.0 0.00 0.00 0.00 54 1018.8
20260503234338 65 15 1.0 2.0 0.00 0.00 0.00 53 1018.7
20260503233853 65 15 0.0 2.0 0.00 0.00 0.00 53 1018.7
20260503233353 65 15 1.0 3.0 0.00 0.00 0.00 53 1018.8
20260503232845 65 9 1.0 3.0 0.00 0.00 0.00 53 1018.7
20260503232345 65 192 0.0 2.0 0.00 0.00 0.00 52 1018.7
20260503231330 66 192 1.0 5.0 0.00 0.00 0.00 50 1018.8
20260503230849 66 223 2.0 4.0 0.00 0.00 0.00 51 1018.8
20260503230348 66 194 1.0 3.0 0.00 0.00 0.00 50 1018.9
20260503225903 66 190 1.0 5.0 0.00 0.00 0.00 50 1018.9
20260503225341 66 190 3.0 5.0 0.00 0.00 0.00 50 1018.9
20260503224840 66 196 1.0 8.0 0.00 0.00 0.00 48 1018.9
20260503224400 67 165 3.0 8.0 0.00 0.00 0.00 48 1018.9
20260503223353 67 159 2.0 6.0 0.00 0.00 0.00 45 1018.9
20260503222846 67 144 1.0 10.0 0.00 0.00 0.00 46 1019.0
20260503222346 67 201 3.0 10.0 0.00 0.00 0.00 45 1019.0
20260503221845 67 198 3.0 7.0 0.00 0.00 0.00 45 1018.9
20260503221345 67 226 3.0 6.0 0.00 0.00 0.00 44 1019.1
20260503220903 68 188 1.0 10.0 0.00 0.00 0.00 48 1019.1
20260503220343 68 5 1.0 10.0 0.00 0.00 0.00 47 1019.1
20260503215836 68 173 2.0 6.0 0.00 0.00 0.00 45 1018.9
20260503215335 68 57 1.0 7.0 0.00 0.00 0.00 46 1019.0
20260503214832 68 213 5.0 7.0 0.00 0.00 0.00 45 1019.1
20260503214332 69 173 2.0 7.0 0.00 0.00 0.00 46 1019.1
20260503213830 69 238 2.0 7.0 0.00 0.00 0.00 44 1019.3
20260503213350 69 235 2.0 7.0 0.00 0.00 0.00 47 1019.3
20260503212846 69 337 1.0 8.0 0.00 0.00 0.00 44 1019.3
20260503212404 69 190 1.0 8.0 0.00 0.00 0.00 43 1019.4
20260503211846 69 263 3.0 9.0 0.00 0.00 0.00 44 1019.6
20260503211346 69 222 4.0 9.0 0.00 0.00 0.00 45 1019.7
20260503210841 69 225 1.0 7.0 0.00 0.00 0.00 44 1019.8
20260503210342 70 242 2.0 6.0 0.00 0.00 0.00 44 1019.7
20260503205835 70 195 2.0 7.0 0.00 0.00 0.00 45 1019.7
20260503205356 70 202 2.0 8.0 0.00 0.00 0.00 45 1019.8
20260503204830 70 9 3.0 9.0 0.00 0.00 0.00 44 1019.9
20260503204351 70 165 1.0 10.0 0.00 0.00 0.00 45 1019.9
20260503203830 69 174 4.0 10.0 0.00 0.00 0.00 45 1020.1
20260503203350 69 275 5.0 11.0 0.00 0.00 0.00 44 1020.1
20260503202907 69 191 6.0 11.0 0.00 0.00 0.00 44 1020.1
20260503202346 70 215 4.0 10.0 0.00 0.00 0.00 43 1020.4
20260503201842 70 190 3.0 9.0 0.00 0.00 0.00 45 1020.4
20260503201341 69 220 4.0 9.0 0.00 0.00 0.00 44 1020.5
20260503200900 69 198 2.0 9.0 0.00 0.00 0.00 43 1020.6
20260503200340 69 211 2.0 11.0 0.00 0.00 0.00 44 1020.6
20260503195835 69 228 5.0 11.0 0.00 0.00 0.00 42 1020.6
20260503195335 69 207 2.0 10.0 0.00 0.00 0.00 43 1020.8
20260503194838 69 115 4.0 10.0 0.00 0.00 0.00 43 1020.8
20260503194333 69 164 4.0 10.0 0.00 0.00 0.00 43 1020.8
20260503193830 69 175 3.0 12.0 0.00 0.00 0.00 41 1020.9
20260503193412 69 238 3.0 12.0 0.00 0.00 0.00 42 1021.0
20260503192842 69 228 3.0 7.0 0.00 0.00 0.00 41 1021.2
20260503192403 69 202 3.0 10.0 0.00 0.00 0.00 41 1021.1
20260503191838 69 234 3.0 10.0 0.00 0.00 0.00 42 1021.2
20260503191338 68 187 4.0 10.0 0.00 0.00 0.00 43 1021.3
20260503190854 68 207 4.0 10.0 0.00 0.00 0.00 42 1021.3
20260503190335 69 105 3.0 9.0 0.00 0.00 0.00 42 1021.4
20260503185848 68 183 1.0 9.0 0.00 0.00 0.00 44 1021.4
20260503185348 68 219 4.0 10.0 0.00 0.00 0.00 44 1021.6
20260503184846 68 284 3.0 9.0 0.00 0.00 0.00 45 1021.7
20260503184346 68 197 3.0 7.0 0.00 0.00 0.00 41 1021.6
20260503183901 67 217 2.0 10.0 0.00 0.00 0.00 47 1021.7
20260503183401 67 211 3.0 9.0 0.00 0.00 0.00 49 1021.8
20260503182834 66 263 4.0 10.0 0.00 0.00 0.00 47 1021.8
20260503182335 66 229 6.0 10.0 0.00 0.00 0.00 46 1021.9
20260503181852 66 47 4.0 10.0 0.00 0.00 0.00 49 1021.9
20260503181331 66 202 2.0 8.0 0.00 0.00 0.00 49 1022.1
20260503180850 66 236 3.0 7.0 0.00 0.00 0.00 50 1022.1
20260503180348 66 205 3.0 7.0 0.00 0.00 0.00 48 1022.2
20260503175846 66 285 3.0 9.0 0.00 0.00 0.00 48 1022.3
20260503175406 65 140 1.0 11.0 0.00 0.00 0.00 52 1022.4
20260503174842 65 128 3.0 11.0 0.00 0.00 0.00 48 1022.4
20260503174342 65 26 3.0 10.0 0.00 0.00 0.00 49 1022.4
20260503173837 65 77 3.0 10.0 0.00 0.00 0.00 49 1022.6
20260503173339 65 78 4.0 12.0 0.00 0.00 0.00 51 1022.7
20260503172832 64 218 6.0 12.0 0.00 0.00 0.00 53 1023.0
20260503172333 63 86 3.0 9.0 0.00 0.00 0.00 53 1023.0
20260503171831 63 206 5.0 10.0 0.00 0.00 0.00 53 1023.0
20260503171411 63 128 4.0 9.0 0.00 0.00 0.00 53 1023.1
20260503170848 63 103 5.0 9.0 0.00 0.00 0.00 51 1023.2
20260503170348 63 71 3.0 8.0 0.00 0.00 0.00 52 1023.3
20260503150853 60 103 4.0 7.0 0.00 0.00 0.00 57 1023.9
20260503150353 59 330 2.0 7.0 0.00 0.00 0.00 58 1024.0
20260503131331 54 5 2.0 9.0 0.00 0.00 0.00 69 1023.7
20260503130910 54 77 2.0 6.0 0.00 0.00 0.00 68 1023.6
20260503130348 54 90 3.0 8.0 0.00 0.00 0.00 70 1023.6
20260503110344 44 109 0.0 0.0 0.00 0.00 0.00 90 1022.7
20260503090336 45 56 0.0 2.0 0.00 0.00 0.00 85 1021.6
20260503081358 45 355 1.0 2.0 0.00 0.00 0.00 87 1021.2
20260503080835 45 317 1.0 2.0 0.00 0.00 0.00 87 1021.3
20260503080414 45 317 0.0 2.0 0.00 0.00 0.00 87 1021.2
20260503072832 46 317 1.0 2.0 0.00 0.00 0.00 87 1021.0
20260503072330 46 317 0.0 1.0 0.00 0.00 0.00 86 1021.0
20260503071831 46 317 0.0 1.0 0.00 0.00 0.00 86 1021.1
20260503071336 46 317 0.0 1.0 0.00 0.00 0.00 86 1021.0
20260503070831 47 317 1.0 1.0 0.00 0.00 0.00 86 1021.0
20260503070353 47 317 1.0 2.0 0.00 0.00 0.00 86 1021.0
20260503054847 48 317 0.0 0.0 0.00 0.00 0.00 83 1020.7
20260503054406 48 317 0.0 0.0 0.00 0.00 0.00 82 1020.8
20260503053841 48 317 0.0 0.0 0.00 0.00 0.00 82 1020.8
20260503053341 48 317 0.0 1.0 0.00 0.00 0.00 81 1020.8
20260503052855 48 317 0.0 2.0 0.00 0.00 0.00 81 1020.8
20260503052353 49 317 1.0 2.0 0.00 0.00 0.00 81 1020.7
20260503051848 49 317 1.0 1.0 0.00 0.00 0.00 80 1020.7
20260503051347 49 317 0.0 2.0 0.00 0.00 0.00 79 1020.6
20260503050846 49 317 1.0 3.0 0.00 0.00 0.00 79 1020.6
20260503050346 49 310 0.0 3.0 0.00 0.00 0.00 79 1020.6
20260503045841 49 174 0.0 1.0 0.00 0.00 0.00 79 1020.6
20260503045341 49 174 0.0 1.0 0.00 0.00 0.00 79 1020.6
20260503044839 49 174 0.0 2.0 0.00 0.00 0.00 78 1020.4
20260503044337 49 174 1.0 2.0 0.00 0.00 0.00 79 1020.3
20260503043835 49 174 1.0 2.0 0.00 0.00 0.00 78 1020.3
20260503043337 49 174 1.0 2.0 0.00 0.00 0.00 77 1020.3
20260503042831 49 174 1.0 1.0 0.00 0.00 0.00 77 1020.3
20260503042335 50 174 1.0 1.0 0.00 0.00 0.00 76 1020.3
20260503041831 50 174 1.0 1.0 0.00 0.00 0.00 76 1020.2
20260503041351 50 174 0.0 1.0 0.00 0.00 0.00 75 1020.2
20260503040907 50 174 0.0 1.0 0.00 0.00 0.00 75 1020.2
20260503040348 50 174 0.0 1.0 0.00 0.00 0.00 75 1020.2
20260503035841 50 174 0.0 2.0 0.00 0.00 0.00 74 1020.1
20260503035341 51 174 0.0 2.0 0.00 0.00 0.00 75 1020.0
20260503034838 51 174 1.0 2.0 0.00 0.00 0.00 74 1020.1
20260503034338 51 174 0.0 2.0 0.00 0.00 0.00 74 1020.0
20260503033833 51 174 1.0 2.0 0.00 0.00 0.00 73 1020.1
20260503033334 52 174 1.0 2.0 0.00 0.00 0.00 73 1020.1
20260503032848 52 174 1.0 3.0 0.00 0.00 0.00 73 1020.3
20260503032348 52 174 1.0 3.0 0.00 0.00 0.00 71 1020.2
20260503031845 52 53 1.0 2.0 0.00 0.00 0.00 70 1020.1
20260503031344 53 53 1.0 2.0 0.00 0.00 0.00 70 1020.0
20260503030842 53 53 1.0 3.0 0.00 0.00 0.00 69 1020.1
20260503030345 53 53 1.0 3.0 0.00 0.00 0.00 68 1020.1
20260503025838 54 53 2.0 3.0 0.00 0.00 0.00 68 1019.9